EHI
8 25 54 71 72 67 57 45 36 25 16 10 8 7 7 8 8 9 10 9 7 4 3 3 2 1 0 0 0 0 0 0 0 1 2 3 4 6 8 10 12 14 18
11 27 53 69 71 66 57 47 37 28 19 13 9 6 6 5 5 6 6 5 4 2 1 1 1 0 0 0 0 0 0 0 1 2 2 2 3 5 7 9 11 12 14
17 28 47 63 66 62 55 46 39 31 22 16 11 6 3 2 2 2 2 1 1 0 0 0 0 0 0 0 0 0 0 0 1 2 2 1 2 3 5 7 8 9 10
21 27 41 55 59 54 48 43 38 32 25 18 13 7 3 1 1 1 0 0 0 0 0 0 0 0 0 0 0 0 0 0 0 1 1 0 1 2 5 7 8 7 7
22 26 39 54 58 51 44 40 36 31 25 17 11 8 5 3 1 1 1 0 0 0 0 0 0 0 0 0 0 0 0 0 0 0 0 0 0 2 5 9 9 6 4
24 29 43 57 60 53 45 41 37 32 26 17 10 7 5 4 3 2 2 1 1 0 0 0 0 0 0 0 0 0 0 0 0 0 0 1 1 3 5 9 9 6 4
30 34 46 57 58 53 48 44 40 36 30 21 11 6 5 4 3 3 3 3 2 1 0 0 0 0 0 0 0 0 0 0 0 0 0 1 3 4 6 8 9 7 4
37 39 45 50 51 50 48 46 44 40 35 25 14 8 6 4 3 4 4 4 3 2 1 0 0 0 0 0 0 0 0 0 0 0 0 1 2 4 6 10 12 10 7
40 41 42 42 42 44 45 46 45 42 37 28 17 10 8 6 5 5 5 4 3 3 1 0 0 0 0 0 0 0 0 0 0 0 1 1 1 3 8 14 16 15 13
36 38 39 38 36 36 38 41 43 41 36 28 19 12 10 8 6 6 6 6 5 4 3 1 0 0 0 0 0 0 0 0 0 0 1 2 2 3 8 15 18 17 15
27 29 32 33 33 31 32 34 37 36 32 24 17 12 10 9 8 7 7 8 8 8 6 3 1 0 0 0 0 0 0 0 0 0 1 2 3 4 7 14 17 16 14
23 23 24 28 30 31 30 30 31 30 26 20 15 11 10 9 8 7 7 8 9 9 8 6 3 1 1 1 2 2 1 1 0 0 0 3 5 7 8 13 16 15 12
25 23 23 25 27 29 30 29 28 27 22 17 14 11 9 7 7 7 6 6 7 8 8 6 4 4 4 4 5 5 3 2 1 0 1 5 9 10 10 12 14 14 12
28 25 24 25 25 27 29 28 27 25 21 17 15 12 9 8 7 7 6 6 6 6 6 6 6 6 6 6 5 5 3 2 1 0 2 6 10 10 10 11 12 12 11
31 27 24 24 23 24 26 28 27 24 20 17 16 13 11 10 9 7 6 6 6 6 6 6 6 5 5 5 4 3 3 2 1 0 1 4 8 9 10 10 11 11 10
35 31 27 26 25 25 25 27 26 23 19 17 15 14 12 10 9 7 6 6 6 6 6 5 5 4 4 4 4 3 3 2 1 0 1 3 5 8 10 11 10 9 9
37 34 33 32 29 27 26 25 24 22 19 16 15 13 11 10 8 7 6 6 6 6 5 5 4 3 3 3 3 3 3 3 2 1 0 1 3 5 8 9 8 6 6
37 38 38 36 32 27 25 23 21 20 18 15 12 11 11 9 7 5 5 6 6 5 4 4 3 3 3 2 2 2 2 2 2 1 0 0 1 2 4 6 6 5 4
39 41 41 36 31 27 24 21 18 17 16 14 10 9 10 9 6 4 4 4 4 4 4 4 3 3 2 1 1 1 1 0 1 1 0 0 0 1 1 4 5 4 3
40 41 40 36 32 29 25 21 17 16 16 14 11 9 9 8 5 4 3 3 3 3 5 5 4 3 1 0 0 0 0 0 0 0 0 0 0 0 0 1 2 2 2
38 38 37 34 32 30 27 21 17 16 16 15 13 10 8 6 5 4 3 2 2 2 3 4 3 2 1 0 0 0 0 0 0 0 0 0 0 0 0 0 0 0 1
37 37 36 34 32 30 27 22 17 15 15 15 13 10 7 6 5 3 2 1 0 1 1 1 1 1 0 0 0 0 0 0 0 0 0 0 0 0 1 0 0 0 0
37 36 34 33 33 32 29 23 17 14 13 12 11 9 7 6 4 3 1 0 0 0 0 0 0 0 0 0 0 0 0 0 0 0 0 0 0 0 0 0 0 0 0
34 33 32 32 33 32 29 23 17 13 11 10 10 8 7 6 4 3 1 0 0 0 0 0 0 0 0 0 0 0 0 0 0 0 0 0 0 0 0 0 0 0 0
25 26 28 29 29 29 27 21 16 13 11 9 8 8 7 6 4 3 2 1 0 0 0 0 0 0 0 0 0 0 0 0 0 0 0 0 0 0 0 0 0 0 0
18 20 24 26 26 26 24 19 14 13 11 9 8 7 7 6 4 3 2 1 0 0 0 0 0 0 0 0 0 0 0 0 0 0 0 0 0 0 0 0 0 0 0
Wind_Speed
8 10 16 16 16 15 15 15 15 14 14 14 14 14 13 13 13 13 12 11 11 10 9 9 8 7 7 6 6 6 5 5 5 5 5 6 7 8 8 8 9 7 10
13 12 17 17 16 16 15 15 15 14 14 13 13 13 12 12 12 11 10 10 9 8 8 7 6 6 6 5 5 4 4 3 3 2 3 4 5 6 7 8 9 6 10
15 12 15 17 17 16 16 15 15 14 14 13 13 12 11 11 10 10 9 8 8 7 6 6 5 5 4 4 3 2 2 2 1 0 0 0 2 5 7 8 9 10 10
15 11 13 18 17 16 16 15 15 14 13 13 12 12 11 10 9 9 8 7 7 6 5 4 4 3 3 2 2 1 1 1 1 2 0 1 2 5 7 8 9 10 10
13 10 14 19 18 17 16 15 15 14 13 12 12 11 10 10 9 8 7 6 5 4 4 3 3 2 2 1 0 1 2 2 3 2 1 2 3 6 8 10 10 10 10
13 10 13 19 18 17 16 15 15 14 13 12 11 11 10 9 8 7 6 6 5 4 3 2 2 1 1 1 1 2 3 4 3 1 2 2 2 7 9 11 11 11 10
12 9 12 17 17 17 16 15 14 13 12 12 11 10 9 9 8 7 6 5 4 3 3 2 1 1 1 2 3 3 4 5 2 1 2 2 3 7 9 10 11 11 11
14 10 10 17 17 16 15 15 14 13 12 11 10 10 9 8 7 6 5 4 3 3 2 2 2 2 3 4 4 5 5 5 3 2 2 2 4 7 9 10 10 11 12
12 10 8 9 12 15 15 14 13 12 11 10 10 9 9 8 7 6 5 4 4 3 3 3 3 4 4 5 5 6 6 6 2 2 4 2 5 7 8 10 11 10 11
9 9 8 7 7 7 8 13 13 12 11 10 10 9 8 7 6 6 5 5 5 5 5 4 4 4 5 6 6 7 6 5 2 2 2 3 6 8 8 9 10 10 11
9 7 7 7 6 6 6 10 10 11 10 9 7 8 6 3 3 3 5 6 6 6 5 5 5 6 6 6 7 7 4 1 2 2 2 4 6 7 7 8 9 10 10
10 8 7 7 8 7 7 5 4 5 5 4 3 3 2 2 2 3 4 6 6 6 6 6 6 5 4 2 4 5 1 2 2 2 3 5 5 5 6 7 8 9 9
11 10 8 8 8 7 5 5 3 3 3 3 3 3 2 2 1 2 1 2 3 4 3 3 3 2 2 2 2 1 2 2 1 2 2 4 4 5 5 6 7 8 8
8 8 7 7 7 7 5 4 4 3 3 3 3 4 3 2 1 1 1 1 1 1 1 1 1 2 2 2 2 2 2 2 1 2 3 5 5 6 6 7 7 8 8
7 6 6 6 6 6 5 4 4 4 4 3 3 3 4 3 2 2 1 1 1 1 1 1 1 2 2 2 2 2 2 2 2 2 2 5 6 6 7 7 8 8 8
8 6 6 6 6 5 5 4 3 3 3 3 3 3 4 3 2 2 1 1 1 1 1 1 1 1 1 1 2 2 2 2 3 2 3 4 7 7 8 8 8 8 8
9 8 7 7 5 6 5 4 3 3 3 2 2 3 3 2 2 2 1 1 1 1 1 1 1 0 1 1 2 2 2 2 3 3 3 3 4 7 8 7 7 7 7
8 8 7 7 6 5 5 4 3 3 3 2 1 1 2 2 2 2 1 1 1 1 1 1 1 0 1 1 2 3 2 3 4 3 3 3 3 3 5 7 7 7 7
7 7 7 6 6 5 4 3 3 3 3 2 2 2 1 1 1 1 1 1 1 1 1 1 0 1 1 2 3 3 2 3 3 3 2 3 3 3 2 5 7 7 8
6 6 7 6 5 4 4 3 2 2 2 1 1 1 2 1 1 1 1 1 1 1 1 1 1 1 1 2 3 3 3 3 3 2 3 2 2 3 3 3 3 4 7
4 5 6 6 5 4 3 3 2 2 1 1 1 1 1 1 1 0 1 0 0 1 1 1 1 1 1 0 1 3 3 3 2 2 2 1 2 2 2 3 2 2 3
5 4 5 5 5 5 3 2 2 2 2 2 1 1 2 2 2 1 1 1 1 0 1 1 1 0 1 0 1 1 3 4 3 2 2 1 2 2 2 3 3 3 3
5 5 4 4 5 4 4 2 2 2 1 1 0 1 2 3 2 2 2 1 1 1 1 2 1 2 1 1 1 2 1 2 4 3 2 2 2 2 2 2 3 4 4
5 4 5 4 5 4 5 4 4 3 2 2 2 2 2 2 2 2 2 1 1 1 2 2 2 2 2 1 1 1 2 3 1 3 4 3 3 3 3 3 3 4 4
4 3 3 3 3 4 4 4 4 2 2 1 1 1 2 1 1 2 2 2 2 2 3 3 2 2 2 3 2 2 1 1 2 2 4 4 3 3 3 3 3 3 4
2 2 3 3 3 3 3 4 4 4 3 2 2 2 2 1 2 2 2 2 3 3 3 3 3 3 3 3 3 2 2 2 2 2 3 3 4 4 3 3 3 3 3
Wind_Direction
153 157 148 140 134 130 126 124 121 119 115 112 110 108 107 107 107 108 109 111 111 111 109 107 104 102 99 97 97 96 100 107 113 123 136 145 150 150 151 153 150 146 145
148 152 146 142 137 133 130 127 126 124 122 119 116 114 113 111 111 112 112 111 111 110 110 109 107 102 99 96 94 95 97 98 107 125 148 152 159 158 157 153 153 151 150
143 147 146 143 139 137 134 132 130 129 127 126 124 122 120 119 119 118 117 115 115 114 114 113 110 105 99 95 90 85 80 78 64 39 194 190 183 178 163 155 155 154 155
143 145 146 145 142 140 139 137 135 134 133 132 131 130 129 127 126 125 124 123 121 120 121 122 118 111 105 94 76 44 7 2 345 309 299 247 223 195 176 164 159 159 159
141 143 149 147 145 144 143 142 141 140 139 138 137 136 136 134 133 131 130 129 128 127 129 130 128 118 120 104 12 318 312 316 314 311 280 251 231 206 192 178 172 169 169
141 143 150 149 148 148 148 147 146 145 144 144 142 142 141 140 138 137 137 137 139 141 143 145 144 146 179 256 284 292 299 302 308 302 282 268 218 210 196 188 182 178 177
141 144 150 149 150 151 151 151 151 150 149 148 148 148 148 147 147 147 146 147 152 157 162 170 184 211 250 275 285 293 297 296 285 267 269 270 225 214 203 194 190 186 186
143 144 147 152 152 153 154 154 154 153 153 152 152 153 155 157 157 156 158 164 175 180 187 206 229 250 265 279 288 292 292 291 283 286 284 260 229 216 206 199 196 194 194
139 141 143 152 155 156 156 156 156 155 156 157 160 163 167 170 170 174 178 184 195 203 215 228 245 260 270 277 285 290 289 283 279 257 270 262 239 223 211 200 198 199 198
135 142 146 148 148 150 156 161 162 162 163 166 170 173 176 181 187 194 195 205 218 229 235 242 256 263 273 281 285 289 290 283 273 263 256 253 243 228 219 207 203 203 204
141 148 153 154 152 152 159 168 167 169 171 172 177 180 179 185 196 207 214 217 228 234 238 248 262 268 277 284 290 292 292 263 261 257 250 252 241 232 228 215 210 208 206
156 162 165 164 165 165 172 164 165 170 170 173 173 179 176 181 197 203 223 226 234 236 242 254 265 269 278 282 291 296 268 249 247 248 244 243 241 239 238 224 216 214 215
161 164 173 173 171 172 169 160 167 169 169 176 178 179 176 179 199 209 216 241 245 241 247 266 271 269 270 262 269 266 251 248 237 247 244 238 234 239 248 240 226 220 220
153 163 169 171 170 173 165 167 167 170 172 181 186 177 169 175 191 202 212 226 226 235 234 249 260 270 271 270 267 261 254 245 236 232 245 246 238 239 240 240 238 230 226
148 157 164 165 167 168 160 170 168 175 173 180 182 178 171 174 192 199 212 213 222 236 221 226 250 263 271 282 280 274 263 252 242 232 253 254 248 246 242 241 240 236 232
151 156 159 159 165 158 160 167 163 169 160 165 178 181 174 176 181 184 193 200 217 227 230 214 229 244 259 267 279 280 269 257 249 242 244 252 251 250 248 245 242 240 237
156 158 161 160 156 154 156 159 154 161 153 168 178 175 172 171 172 174 176 190 230 222 220 209 232 286 306 291 280 280 275 270 268 257 245 237 240 246 243 241 238 237 239
155 159 164 159 149 149 148 146 134 139 143 160 155 152 154 159 162 162 171 201 227 204 186 194 187 193 289 290 284 281 276 271 270 262 248 239 232 236 243 241 237 233 238
156 155 154 148 151 152 141 133 132 134 141 148 137 140 141 132 137 142 173 205 201 167 202 236 186 183 252 279 275 269 272 269 268 268 250 244 237 234 234 243 238 237 243
150 152 152 145 149 143 130 115 103 103 117 133 145 152 137 137 135 124 172 212 173 159 222 236 229 241 234 250 279 291 278 269 270 261 250 254 245 236 233 238 241 247 249
129 143 151 142 144 137 136 137 138 151 166 167 175 169 152 168 158 156 196 175 164 193 219 216 220 263 273 304 6 325 311 293 279 267 259 257 262 252 236 232 227 232 250
136 145 147 143 146 152 157 168 168 166 181 189 188 185 192 200 203 191 197 206 199 222 286 248 181 212 278 104 122 23 330 328 320 306 298 274 265 262 252 247 234 234 242
149 160 160 160 156 158 154 133 105 78 60 50 204 227 219 205 206 201 199 199 205 195 231 237 194 173 231 272 157 156 172 259 300 308 298 291 285 278 273 269 252 247 244
174 165 156 165 162 159 156 153 153 154 180 217 216 229 246 229 217 205 198 196 212 219 238 237 204 189 183 242 276 218 197 193 210 299 309 297 286 278 272 272 264 256 251
170 158 156 158 159 160 163 166 163 170 194 212 223 229 260 266 235 224 210 214 221 224 233 241 236 217 200 206 217 226 237 233 195 198 279 300 304 280 264 259 258 259 252
146 147 148 151 165 166 172 179 179 185 189 184 222 227 248 269 265 249 232 230 236 225 227 230 233 234 230 223 222 209 199 208 225 209 241 273 285 282 277 261 254 257 256